When you browse on this site, cookies collect data to enhance your experience and personalize the content and advertising you see.
Visit our Privacy Policy to learn more. By continuing to use the site, you agree to this use of cookies and data.
  • In Sweden
  • List of Countries
  • For 7 days
  • Water Temperature
  • Satellite Maps
  • Weather Map
  • Weather Widgets
  • user-avatar
    Login

    Hourly Weather Arvika

    Today, 26 June, Wednesday

    Time Temperature Precipitation Wind Pressure Humidity
    00:00 +13°C° 0.8 mm 1 mps 761 mmHg 97%
    01:00 +12°C° 0 mm 0 mps 761 mmHg 98%
    02:00 +12°C° 0.9 mm 0 mps 760 mmHg 98%
    03:00 +12°C° 0.9 mm 0 mps 760 mmHg 98%
    04:00 +12°C° 0.9 mm 0 mps 759 mmHg 98%
    05:00 +13°C° 0.1 mm 0 mps 759 mmHg 98%
    06:00 +13°C° 0.1 mm 0 mps 759 mmHg 97%
    07:00 +13°C° 0.1 mm 0 mps 759 mmHg 97%
    08:00 +14°C° 0 mm 0 mps 758 mmHg 94%
    09:00 +16°C° 0 mm 1 mps 758 mmHg 91%
    10:00 +18°C° 0 mm 1 mps 758 mmHg 88%
    11:00 +20°C° 0 mm 1 mps 758 mmHg 80%
    12:00 +22°C° 0 mm 1 mps 757 mmHg 71%
    13:00 +24°C° 0 mm 1 mps 757 mmHg 63%
    14:00 +23°C° 0.5 mm 1 mps 756 mmHg 69%
    15:00 +22°C° 0.5 mm 1 mps 756 mmHg 76%
    16:00 +22°C° 0.5 mm 1 mps 755 mmHg 82%
    17:00 +21°C° 0.5 mm 1 mps 755 mmHg 84%
    18:00 +21°C° 0.5 mm 1 mps 755 mmHg 86%
    19:00 +21°C° 0.5 mm 1 mps 755 mmHg 88%
    20:00 +20°C° 0.2 mm 1 mps 755 mmHg 89%
    21:00 +17°C° 0.2 mm 2 mps 755 mmHg 90%
    22:00 +16°C° 0.2 mm 2 mps 755 mmHg 92%
    23:00 +15°C° 0 mm 2 mps 756 mmHg 87%

    Tomorrow, 27 June, Thursday

    Time Temperature Precipitation Wind Pressure Humidity
    00:00 +13°C° 0 mm 3 mps 757 mmHg 82%
    01:00 +12°C° 0 mm 4 mps 757 mmHg 78%
    02:00 +12°C° 0 mm 3 mps 757 mmHg 74%
    03:00 +11°C° 0 mm 3 mps 758 mmHg 70%
    04:00 +10°C° 0 mm 2 mps 758 mmHg 67%
    05:00 +12°C° 0 mm 3 mps 759 mmHg 62%
    06:00 +13°C° 0 mm 3 mps 759 mmHg 58%
    07:00 +16°C° 0 mm 3 mps 759 mmHg 53%
    08:00 +17°C° 0 mm 3 mps 759 mmHg 49%
    09:00 +19°C° 0 mm 3 mps 760 mmHg 44%
    10:00 +21°C° 0 mm 3 mps 760 mmHg 39%
    11:00 +21°C° 0 mm 3 mps 760 mmHg 37%
    12:00 +22°C° 0 mm 3 mps 759 mmHg 35%
    13:00 +24°C° 0 mm 3 mps 759 mmHg 34%
    14:00 +24°C° 0 mm 3 mps 759 mmHg 34%
    15:00 +24°C° 0 mm 3 mps 759 mmHg 35%
    16:00 +24°C° 0 mm 3 mps 759 mmHg 36%
    17:00 +23°C° 0 mm 2 mps 759 mmHg 41%
    18:00 +23°C° 0 mm 1 mps 759 mmHg 47%
    19:00 +22°C° 0 mm 1 mps 759 mmHg 52%
    20:00 +20°C° 0 mm 1 mps 759 mmHg 57%
    21:00 +18°C° 0 mm 1 mps 760 mmHg 61%
    22:00 +16°C° 0 mm 1 mps 760 mmHg 65%
    23:00 +14°C° 0 mm 1 mps 761 mmHg 65%

    Day after tomorrow, 28 June, Friday

    Time Temperature Precipitation Wind Pressure Humidity
    00:00 +13°C° 0 mm 2 mps 761 mmHg 64%
    01:00 +12°C° 0 mm 2 mps 761 mmHg 63%
    02:00 +12°C° 0 mm 2 mps 762 mmHg 61%
    03:00 +12°C° 0 mm 2 mps 762 mmHg 59%
    04:00 +12°C° 0 mm 2 mps 762 mmHg 57%
    05:00 +13°C° 0 mm 2 mps 762 mmHg 56%
    06:00 +14°C° 0 mm 1 mps 762 mmHg 54%
    07:00 +15°C° 0 mm 1 mps 762 mmHg 53%
    08:00 +18°C° 0 mm 1 mps 761 mmHg 49%
    09:00 +21°C° 0 mm 1 mps 761 mmHg 45%
    10:00 +23°C° 0 mm 1 mps 761 mmHg 40%
    11:00 +23°C° 0 mm 1 mps 761 mmHg 39%
    12:00 +24°C° 0 mm 2 mps 760 mmHg 37%
    13:00 +25°C° 0 mm 2 mps 760 mmHg 35%
    14:00 +25°C° 0 mm 2 mps 760 mmHg 36%
    15:00 +26°C° 0 mm 2 mps 759 mmHg 36%
    16:00 +26°C° 0 mm 2 mps 759 mmHg 36%
    17:00 +25°C° 0 mm 2 mps 759 mmHg 41%
    18:00 +24°C° 0 mm 2 mps 758 mmHg 47%
    19:00 +23°C° 0 mm 2 mps 758 mmHg 52%
    20:00 +20°C° 0 mm 2 mps 758 mmHg 60%
    21:00 +18°C° 0 mm 2 mps 758 mmHg 68%
    22:00 +15°C° 0 mm 2 mps 758 mmHg 76%
    23:00 +14°C° 0 mm 1 mps 758 mmHg 80%

    29 June, Saturday

    Time Temperature Precipitation Wind Pressure Humidity
    00:00 +13°C° 0 mm 1 mps 758 mmHg 85%
    01:00 +12°C° 0 mm 1 mps 757 mmHg 90%
    02:00 +11°C° 0 mm 0 mps 757 mmHg 91%
    03:00 +11°C° 0 mm 0 mps 757 mmHg 92%
    04:00 +11°C° 0 mm 0 mps 757 mmHg 93%
    05:00 +14°C° 0 mm 0 mps 757 mmHg 84%
    06:00 +18°C° 0 mm 1 mps 757 mmHg 76%
    07:00 +20°C° 0 mm 1 mps 756 mmHg 67%
    08:00 +22°C° 0 mm 1 mps 756 mmHg 61%
    09:00 +23°C° 0 mm 0 mps 756 mmHg 54%
    10:00 +25°C° 0 mm 0 mps 756 mmHg 48%
    11:00 +28°C° 0 mm 1 mps 755 mmHg 42%
    12:00 +29°C° 0 mm 1 mps 755 mmHg 37%
    13:00 +30°C° 0 mm 2 mps 754 mmHg 32%
    14:00 +30°C° 0 mm 2 mps 754 mmHg 33%
    15:00 +30°C° 0 mm 3 mps 754 mmHg 33%
    16:00 +31°C° 0 mm 3 mps 753 mmHg 33%
    17:00 +29°C° 0 mm 3 mps 753 mmHg 39%
    18:00 +28°C° 0 mm 2 mps 752 mmHg 45%
    19:00 +26°C° 0 mm 2 mps 752 mmHg 52%
    20:00 +24°C° 0 mm 2 mps 752 mmHg 60%
    21:00 +21°C° 0 mm 2 mps 752 mmHg 68%
    22:00 +18°C° 0 mm 2 mps 752 mmHg 76%
    23:00 +18°C° 0 mm 2 mps 751 mmHg 78%

    30 June, Sunday

    Time Temperature Precipitation Wind Pressure Humidity
    00:00 +17°C° 0 mm 2 mps 751 mmHg 79%
    01:00 +16°C° 0 mm 2 mps 750 mmHg 81%
    02:00 +16°C° 0 mm 2 mps 750 mmHg 78%
    03:00 +16°C° 0 mm 3 mps 750 mmHg 75%
    04:00 +17°C° 0 mm 3 mps 749 mmHg 72%
    05:00 +18°C° 0 mm 4 mps 749 mmHg 66%
    06:00 +19°C° 0 mm 4 mps 748 mmHg 59%
    07:00 +20°C° 0 mm 5 mps 747 mmHg 53%
    08:00 +21°C° 0 mm 5 mps 747 mmHg 51%
    09:00 +22°C° 0 mm 5 mps 746 mmHg 49%
    10:00 +23°C° 0 mm 6 mps 746 mmHg 47%
    11:00 +24°C° 0 mm 6 mps 745 mmHg 49%
    12:00 +26°C° 0 mm 7 mps 744 mmHg 51%
    13:00 +26°C° 0 mm 7 mps 743 mmHg 53%
    14:00 +26°C° 0 mm 7 mps 743 mmHg 53%
    15:00 +26°C° 0 mm 6 mps 743 mmHg 53%
    16:00 +24°C° 0 mm 6 mps 742 mmHg 53%
    17:00 +24°C° 0 mm 6 mps 742 mmHg 54%
    18:00 +23°C° 0 mm 5 mps 742 mmHg 55%
    19:00 +22°C° 0 mm 5 mps 742 mmHg 57%
    20:00 +22°C° 0 mm 5 mps 743 mmHg 56%
    21:00 +21°C° 0 mm 5 mps 743 mmHg 55%
    22:00 +20°C° 0 mm 4 mps 743 mmHg 54%
    23:00 +18°C° 0 mm 4 mps 743 mmHg 57%

    1 July, Monday

    Time Temperature Precipitation Wind Pressure Humidity
    00:00 +17°C° 0 mm 4 mps 743 mmHg 60%
    01:00 +15°C° 0 mm 4 mps 744 mmHg 63%
    02:00 +15°C° 0 mm 4 mps 743 mmHg 67%
    03:00 +14°C° 0 mm 4 mps 743 mmHg 72%
    04:00 +14°C° 0 mm 4 mps 743 mmHg 76%
    05:00 +15°C° 0 mm 5 mps 743 mmHg 70%
    06:00 +16°C° 0 mm 5 mps 743 mmHg 63%
    07:00 +17°C° 0 mm 5 mps 743 mmHg 56%
    08:00 +19°C° 0 mm 6 mps 743 mmHg 54%
    09:00 +20°C° 0 mm 6 mps 743 mmHg 51%
    10:00 +20°C° 0 mm 7 mps 743 mmHg 49%
    11:00 +21°C° 0.3 mm 7 mps 743 mmHg 50%
    12:00 +21°C° 0.3 mm 7 mps 742 mmHg 52%
    13:00 +21°C° 0.3 mm 7 mps 742 mmHg 53%
    14:00 +21°C° 0.4 mm 7 mps 742 mmHg 54%
    15:00 +20°C° 0.4 mm 7 mps 742 mmHg 55%
    16:00 +20°C° 0.4 mm 7 mps 742 mmHg 56%
    17:00 +20°C° 0 mm 6 mps 741 mmHg 56%
    18:00 +19°C° 0 mm 6 mps 741 mmHg 56%
    19:00 +19°C° 0 mm 6 mps 741 mmHg 56%
    20:00 +17°C° 0 mm 5 mps 741 mmHg 60%
    21:00 +15°C° 0 mm 5 mps 742 mmHg 65%
    22:00 +14°C° 0 mm 4 mps 742 mmHg 70%
    23:00 +13°C° 0 mm 4 mps 742 mmHg 71%
    Show more